Temp
-3 -3 -3 -3 -3 -3 -2 -2 -2 -2 -2 -2 -2 -1 -2 -2 -2 -2 -3 -4 -6 -5 -5 -6 -6 -5 -6 -6 -6 -7 -7 -6 -7 -8 -7 -7 -5 -5 -6 -6 -5 -4 -5 -5 -5
-3 -3 -3 -3 -3 -3 -3 -3 -2 -2 -2 -2 -2 -2 -2 -2 -2 -2 -2 -3 -5 -5 -6 -5 -6 -6 -6 -7 -6 -6 -7 -5 -6 -6 -7 -6 -5 -4 -5 -5 -5 -4 -4 -4 -5
-3 -3 -3 -3 -3 -3 -3 -3 -2 -2 -2 -2 -2 -2 -2 -2 -2 -2 -2 -3 -3 -5 -6 -7 -6 -7 -8 -7 -6 -6 -7 -7 -7 -7 -5 -6 -5 -5 -5 -5 -5 -5 -4 -4 -4
-3 -3 -3 -2 -2 -2 -2 -2 -2 -2 -2 -2 -2 -2 -2 -2 -2 -2 -2 -2 -2 -3 -6 -6 -7 -7 -6 -5 -6 -4 -7 -6 -6 -6 -7 -6 -5 -6 -5 -6 -6 -5 -5 -4 -5
-3 -3 -3 -3 -3 -3 -2 -2 -2 -2 -2 -2 -2 -2 -2 -2 -2 -2 -3 -3 -2 -2 -5 -6 -6 -6 -6 -5 -5 -6 -7 -6 -6 -6 -7 -6 -6 -7 -6 -6 -6 -6 -5 -5 -5
-4 -3 -3 -3 -3 -3 -3 -3 -2 -2 -2 -2 -2 -2 -2 -2 -3 -3 -3 -3 -3 -3 -3 -5 -6 -5 -4 -6 -7 -6 -5 -6 -6 -6 -7 -6 -6 -7 -7 -6 -6 -6 -6 -6 -5
-4 -4 -4 -3 -3 -3 -3 -3 -3 -2 -2 -2 -2 -2 -2 -2 -2 -3 -3 -3 -3 -3 -3 -4 -5 -6 -4 -3 -6 -6 -6 -6 -6 -6 -6 -7 -7 -7 -7 -7 -7 -7 -7 -6 -6
-5 -4 -4 -4 -4 -3 -3 -3 -3 -3 -3 -2 -2 -2 -3 -2 -3 -3 -3 -3 -3 -3 -3 -3 -4 -6 -5 -4 -4 -4 -5 -7 -6 -6 -6 -6 -7 -7 -7 -7 -7 -7 -7 -7 -6
-5 -5 -5 -5 -4 -4 -4 -4 -3 -3 -3 -3 -3 -3 -2 -3 -3 -3 -3 -3 -3 -3 -3 -4 -4 -5 -6 -5 -4 -5 -6 -6 -6 -6 -6 -6 -7 -7 -6 -6 -7 -7 -7 -7 -6
-6 -6 -6 -5 -5 -4 -4 -4 -4 -4 -3 -3 -3 -3 -3 -3 -3 -3 -3 -3 -3 -3 -4 -3 -4 -4 -5 -6 -5 -6 -6 -6 -6 -6 -6 -6 -6 -6 -6 -6 -7 -7 -7 -7 -7
-6 -6 -6 -6 -6 -5 -5 -4 -5 -4 -4 -4 -3 -3 -3 -3 -3 -3 -3 -3 -3 -4 -4 -4 -4 -4 -5 -6 -6 -6 -6 -7 -6 -6 -6 -5 -6 -6 -6 -7 -7 -7 -7 -7 -7
-6 -7 -7 -6 -6 -6 -5 -5 -4 -4 -4 -4 -4 -4 -3 -3 -4 -3 -3 -3 -4 -4 -4 -4 -4 -5 -5 -6 -6 -5 -5 -7 -7 -6 -6 -6 -6 -6 -7 -6 -6 -6 -7 -7 -7
-7 -7 -7 -7 -7 -7 -6 -6 -5 -5 -4 -4 -4 -4 -4 -4 -4 -4 -4 -4 -4 -4 -4 -4 -5 -5 -5 -6 -7 -5 -6 -7 -7 -7 -7 -7 -6 -6 -6 -6 -7 -6 -6 -6 -7
-7 -7 -7 -7 -7 -7 -6 -6 -6 -5 -5 -5 -4 -4 -4 -4 -4 -4 -4 -4 -4 -4 -4 -5 -5 -5 -5 -5 -7 -7 -7 -8 -7 -7 -7 -6 -6 -7 -7 -6 -6 -6 -6 -6 -7
-7 -7 -7 -7 -7 -7 -7 -6 -6 -6 -5 -6 -5 -5 -4 -4 -4 -4 -4 -4 -4 -5 -4 -5 -5 -5 -5 -5 -5 -7 -8 -8 -8 -6 -7 -7 -7 -6 -7 -7 -7 -6 -6 -6 -6
-7 -7 -7 -7 -7 -7 -7 -7 -6 -6 -6 -7 -6 -6 -5 -5 -4 -4 -4 -4 -4 -4 -4 -4 -4 -4 -4 -5 -6 -7 -8 -8 -7 -7 -7 -7 -7 -6 -6 -7 -5 -7 -7 -7 -7
-7 -7 -7 -7 -7 -7 -7 -7 -7 -7 -7 -7 -7 -7 -6 -6 -5 -5 -5 -5 -5 -4 -4 -5 -5 -5 -5 -5 -6 -7 -7 -7 -7 -7 -6 -7 -7 -6 -6 -6 -7 -7 -8 -7 -7
-7 -7 -8 -7 -7 -7 -7 -7 -7 -8 -8 -7 -7 -7 -7 -6 -6 -5 -5 -5 -5 -5 -5 -5 -5 -6 -6 -6 -6 -6 -6 -6 -7 -6 -7 -7 -6 -6 -6 -6 -7 -7 -7 -7 -7
-8 -8 -7 -7 -7 -7 -7 -7 -8 -9 -7 -7 -7 -8 -7 -7 -6 -5 -6 -6 -5 -6 -5 -6 -6 -6 -7 -7 -7 -6 -6 -6 -6 -7 -7 -7 -6 -6 -6 -6 -6 -6 -7 -6 -6
-8 -8 -8 -8 -7 -7 -7 -8 -8 -9 -8 -7 -8 -9 -8 -7 -6 -6 -6 -6 -6 -6 -6 -6 -6 -6 -7 -7 -7 -6 -6 -6 -7 -7 -7 -6 -6 -6 -6 -6 -7 -7 -7 -6 -7
-8 -8 -8 -7 -7 -7 -8 -8 -8 -9 -8 -9 -8 -8 -9 -9 -8 -7 -7 -7 -7 -7 -6 -7 -7 -7 -7 -7 -7 -7 -6 -6 -6 -6 -7 -6 -6 -6 -7 -7 -7 -7 -7 -7 -6
-8 -8 -8 -8 -8 -8 -8 -9 -8 -9 -9 -9 -8 -9 -9 -9 -9 -8 -7 -7 -8 -8 -7 -7 -7 -8 -8 -7 -7 -7 -7 -6 -6 -6 -6 -6 -6 -7 -7 -8 -7 -7 -7 -7 -6
-8 -8 -8 -8 -8 -8 -8 -9 -8 -9 -9 -8 -8 -9 -9 -8 -8 -8 -8 -8 -8 -8 -7 -8 -7 -8 -8 -7 -7 -7 -7 -6 -6 -7 -6 -6 -6 -6 -7 -7 -6 -7 -7 -8 -7
-9 -8 -8 -8 -8 -8 -8 -8 -8 -8 -9 -8 -8 -8 -8 -8 -8 -8 -8 -8 -8 -8 -8 -8 -8 -8 -7 -7 -7 -7 -7 -7 -7 -7 -7 -7 -8 -7 -7 -7 -6 -7 -7 -8 -8
-9 -8 -7 -8 -8 -8 -8 -8 -8 -8 -8 -8 -9 -8 -8 -8 -8 -8 -8 -8 -8 -8 -8 -8 -8 -8 -7 -7 -7 -7 -7 -7 -7 -7 -7 -7 -7 -7 -7 -7 -7 -8 -7 -7 -8
-9 -9 -8 -9 -9 -9 -8 -9 -8 -9 -9 -8 -9 -8 -8 -8 -8 -8 -9 -8 -8 -8 -8 -8 -7 -7 -7 -7 -7 -7 -7 -7 -7 -7 -7 -7 -7 -7 -7 -7 -8 -7 -8 -8 -8
-10 -10 -10 -9 -9 -9 -9 -9 -8 -9 -8 -8 -8 -9 -9 -9 -8 -8 -8 -8 -7 -7 -7 -7 -8 -8 -7 -7 -7 -8 -7 -7 -7 -7 -7 -7 -7 -7 -7 -8 -8 -7 -7 -7 -7
Height
5934 5935 5937 5938 5938 5939 5941 5941 5942 5942 5942 5942 5942 5942 5943 5942 5941 5942 5941 5942 5940 5940 5941 5943 5943 5943 5941 5939 5935 5934 5935 5934 5931 5934 5931 5931 5933 5929 5927 5924 5923 5925 5925 5925 5922
5929 5931 5933 5935 5936 5937 5938 5940 5940 5941 5942 5942 5943 5943 5943 5944 5943 5942 5943 5942 5941 5940 5941 5941 5942 5945 5941 5937 5933 5932 5934 5933 5934 5936 5934 5932 5933 5931 5929 5928 5924 5924 5929 5929 5928
5924 5926 5928 5930 5932 5934 5935 5936 5938 5939 5940 5941 5942 5943 5944 5944 5944 5944 5943 5944 5943 5942 5943 5943 5944 5944 5943 5935 5930 5931 5931 5933 5938 5940 5941 5937 5934 5934 5931 5929 5927 5925 5927 5929 5930
5919 5921 5923 5925 5927 5929 5931 5933 5934 5936 5938 5939 5940 5942 5943 5944 5945 5944 5944 5945 5944 5943 5943 5944 5945 5944 5941 5933 5938 5937 5936 5938 5942 5943 5942 5939 5939 5935 5934 5930 5930 5930 5926 5930 5929
5914 5916 5917 5919 5921 5924 5926 5928 5930 5932 5934 5936 5938 5940 5942 5943 5943 5944 5945 5945 5945 5944 5943 5944 5945 5943 5940 5937 5940 5937 5945 5941 5943 5939 5940 5939 5938 5932 5936 5933 5933 5932 5931 5927 5929
5908 5910 5912 5914 5916 5918 5921 5923 5925 5927 5930 5932 5934 5937 5939 5941 5941 5943 5943 5944 5945 5945 5943 5944 5943 5942 5942 5938 5942 5945 5948 5946 5943 5942 5941 5941 5939 5938 5939 5937 5934 5934 5934 5931 5929
5903 5904 5906 5908 5909 5912 5914 5917 5919 5922 5925 5927 5930 5933 5936 5938 5938 5940 5941 5943 5944 5944 5943 5943 5942 5941 5941 5942 5944 5946 5945 5946 5947 5944 5941 5942 5942 5941 5940 5940 5939 5938 5937 5935 5933
5898 5899 5900 5902 5903 5905 5907 5910 5913 5916 5919 5922 5925 5928 5930 5934 5935 5937 5939 5940 5942 5942 5941 5941 5941 5941 5937 5942 5943 5944 5944 5946 5949 5948 5946 5944 5944 5942 5942 5943 5943 5941 5939 5938 5937
5893 5894 5895 5896 5897 5898 5900 5903 5907 5910 5913 5917 5921 5923 5925 5929 5931 5933 5936 5937 5939 5939 5939 5939 5940 5941 5941 5939 5940 5943 5946 5946 5949 5947 5946 5944 5940 5942 5944 5943 5944 5942 5942 5940 5938
5888 5888 5889 5890 5891 5892 5894 5896 5899 5903 5907 5910 5914 5919 5920 5922 5925 5928 5931 5933 5935 5936 5937 5937 5939 5940 5939 5941 5943 5944 5945 5945 5948 5947 5946 5944 5946 5941 5943 5947 5945 5942 5940 5939 5937
5884 5884 5884 5884 5885 5886 5888 5890 5893 5896 5899 5902 5908 5911 5914 5918 5922 5924 5926 5928 5930 5933 5934 5934 5937 5939 5939 5941 5940 5941 5941 5944 5945 5946 5948 5948 5946 5946 5945 5946 5946 5942 5939 5938 5937
5879 5879 5879 5880 5881 5881 5882 5884 5886 5890 5894 5896 5901 5904 5907 5912 5916 5918 5921 5924 5927 5930 5930 5933 5935 5935 5936 5937 5938 5938 5938 5940 5945 5944 5942 5947 5947 5946 5946 5945 5945 5942 5940 5938 5939
5874 5875 5875 5875 5876 5877 5878 5878 5879 5883 5888 5889 5894 5896 5900 5906 5910 5911 5916 5918 5921 5923 5926 5930 5931 5930 5932 5933 5934 5937 5937 5939 5943 5943 5940 5944 5946 5946 5945 5944 5946 5945 5942 5939 5939
5869 5870 5871 5871 5873 5872 5874 5875 5877 5880 5882 5885 5887 5889 5895 5899 5905 5906 5910 5914 5916 5920 5921 5925 5926 5927 5929 5930 5932 5933 5936 5937 5939 5942 5940 5939 5943 5944 5943 5943 5946 5946 5942 5943 5940
5864 5865 5866 5867 5868 5869 5870 5872 5874 5876 5878 5880 5882 5885 5888 5894 5896 5901 5903 5907 5911 5914 5917 5922 5921 5924 5925 5928 5928 5933 5932 5935 5936 5939 5938 5937 5941 5941 5939 5942 5942 5943 5942 5941 5941
5858 5860 5862 5863 5864 5866 5867 5870 5871 5874 5875 5877 5878 5879 5882 5885 5890 5894 5898 5901 5904 5907 5911 5915 5917 5917 5920 5922 5923 5929 5929 5931 5933 5935 5936 5939 5939 5939 5937 5937 5937 5938 5937 5939 5938
5852 5855 5857 5859 5861 5862 5864 5867 5869 5868 5872 5873 5875 5876 5878 5881 5884 5889 5893 5896 5899 5903 5908 5911 5913 5914 5916 5919 5920 5923 5927 5927 5929 5931 5935 5936 5936 5935 5934 5932 5931 5931 5935 5936 5934
5846 5849 5852 5854 5856 5859 5862 5865 5865 5867 5867 5869 5871 5873 5874 5877 5880 5883 5888 5891 5894 5898 5900 5904 5908 5912 5914 5916 5919 5919 5922 5925 5926 5930 5934 5933 5933 5934 5930 5929 5930 5932 5933 5934 5930
5841 5843 5845 5849 5853 5856 5860 5862 5862 5863 5863 5864 5865 5870 5871 5874 5876 5880 5884 5886 5889 5893 5897 5901 5903 5904 5908 5912 5914 5917 5917 5922 5923 5926 5928 5930 5932 5930 5929 5928 5930 5930 5932 5932 5932
5835 5837 5840 5844 5847 5852 5856 5858 5860 5861 5861 5862 5864 5867 5871 5872 5875 5877 5880 5883 5887 5890 5894 5898 5901 5902 5904 5907 5911 5911 5916 5916 5919 5922 5925 5927 5929 5928 5928 5927 5929 5931 5932 5930 5930
5829 5831 5834 5836 5843 5848 5852 5854 5857 5858 5860 5861 5862 5863 5870 5873 5875 5876 5878 5881 5885 5888 5892 5893 5897 5900 5901 5905 5908 5909 5910 5914 5917 5920 5922 5925 5925 5925 5927 5928 5930 5931 5933 5931 5929
5821 5824 5827 5832 5838 5843 5846 5848 5852 5855 5856 5859 5863 5867 5871 5872 5873 5875 5879 5880 5883 5888 5890 5892 5894 5896 5898 5902 5904 5906 5908 5912 5914 5920 5922 5923 5921 5921 5921 5923 5929 5931 5931 5931 5928
5814 5816 5822 5824 5832 5838 5840 5841 5845 5851 5853 5857 5860 5865 5865 5871 5872 5874 5877 5880 5882 5886 5889 5890 5892 5895 5897 5900 5901 5903 5906 5910 5913 5916 5918 5918 5917 5919 5922 5924 5925 5923 5927 5924 5925
5805 5807 5812 5817 5822 5825 5830 5835 5842 5848 5852 5856 5859 5862 5865 5868 5868 5872 5876 5878 5879 5883 5885 5889 5889 5892 5895 5898 5899 5900 5900 5908 5911 5913 5913 5913 5914 5916 5917 5918 5919 5921 5924 5922 5920
5793 5796 5801 5811 5815 5821 5825 5830 5835 5841 5846 5852 5856 5860 5863 5865 5867 5870 5874 5876 5880 5882 5884 5886 5887 5890 5893 5896 5899 5899 5900 5905 5907 5911 5912 5910 5911 5912 5913 5914 5917 5918 5915 5917 5919
5782 5785 5794 5805 5810 5817 5821 5826 5831 5837 5841 5847 5852 5856 5859 5861 5862 5868 5872 5875 5877 5880 5880 5883 5888 5888 5891 5896 5897 5896 5898 5900 5905 5908 5909 5911 5911 5911 5911 5911 5912 5912 5911 5912 5912
5770 5776 5784 5795 5800 5808 5813 5817 5824 5828 5836 5841 5848 5850 5853 5857 5859 5865 5869 5873 5873 5874 5878 5883 5886 5886 5889 5894 5894 5896 5896 5899 5903 5904 5907 5907 5910 5910 5910 5911 5911 5912 5909 5909 5908
Wind_Speed
20 18 16 14 13 10 9 7 5 3 2 2 3 3 4 6 7 5 9 11 11 7 10 16 14 13 21 14 18 20 21 12 18 19 17 20 17 22 21 15 14 13 11 7 7
22 22 21 20 17 15 14 12 10 7 4 3 2 2 3 4 6 6 5 8 15 11 8 5 12 11 15 11 5 11 9 14 11 18 16 17 21 21 23 23 20 17 15 11 11
24 24 23 22 21 19 17 15 13 13 10 7 4 4 3 4 5 6 6 7 10 15 13 10 12 10 15 1 11 8 3 16 22 19 14 19 24 25 25 23 23 22 16 13 11
26 26 24 24 24 22 21 19 17 16 15 12 8 6 6 5 6 5 7 7 6 10 18 19 16 11 9 4 16 11 19 22 24 17 13 11 19 24 26 27 23 20 18 14 11
27 27 27 27 26 24 24 22 21 18 17 16 14 10 8 9 6 6 6 8 7 7 16 16 13 14 14 6 7 11 17 20 15 10 7 10 14 21 23 25 25 20 17 18 13
24 26 27 29 28 27 26 24 22 22 21 19 17 15 13 11 11 8 7 9 8 7 11 15 13 13 9 7 3 4 4 8 10 9 2 14 10 15 19 25 25 23 18 18 17
23 25 26 27 29 30 28 27 26 24 24 24 22 20 17 16 15 11 11 9 10 9 9 16 16 11 9 6 5 4 2 6 7 7 14 13 12 14 19 24 22 22 20 17 15
22 24 25 26 28 30 31 31 29 28 26 25 23 22 22 18 18 16 13 12 13 11 12 12 14 15 17 12 5 4 4 10 5 9 14 16 20 14 15 15 17 16 16 18 15
20 22 24 26 27 28 30 32 31 30 30 26 24 23 25 21 22 20 17 16 14 15 15 15 12 16 17 17 11 1 10 7 4 15 10 10 10 13 11 9 9 14 13 13 15
17 20 22 23 25 26 28 29 31 31 29 29 27 25 26 25 26 23 19 18 18 17 17 15 11 11 14 17 11 4 9 4 13 9 4 5 17 9 13 11 7 11 12 10 15
19 18 21 21 22 23 24 26 28 32 31 30 28 28 26 23 22 24 22 22 21 18 17 18 12 9 12 16 14 7 2 7 10 18 3 5 15 15 15 12 4 13 12 10 13
19 19 19 20 20 21 21 21 25 28 28 31 28 29 29 26 22 23 24 24 21 19 21 18 9 11 12 18 17 15 2 10 9 9 8 6 11 10 9 9 5 11 7 9 11
19 19 18 18 19 19 18 18 19 21 23 30 28 29 29 28 26 27 26 26 24 24 22 17 14 18 14 14 22 17 5 7 5 6 7 12 6 7 6 11 15 6 7 10 11
19 18 18 16 17 18 18 17 16 14 16 23 26 30 27 26 26 28 27 27 25 23 23 21 21 19 16 17 17 10 7 12 6 3 3 15 10 8 7 8 9 7 13 14 11
20 19 18 16 14 16 16 15 13 12 15 17 19 24 27 25 28 26 29 28 26 24 24 19 23 22 23 21 16 18 7 13 8 1 4 7 14 8 10 5 5 5 3 14 9
20 20 18 17 14 14 14 11 11 10 10 7 12 15 21 26 26 27 27 28 28 28 26 23 23 25 22 19 15 21 15 18 10 11 6 10 10 12 19 16 7 4 12 16 9
22 21 19 19 15 14 13 10 10 10 11 10 10 11 18 21 24 25 24 24 25 24 21 18 19 19 19 17 17 22 30 21 19 16 11 7 13 14 14 14 5 6 6 14 17
22 22 22 20 18 14 13 11 12 13 12 12 11 4 9 15 19 23 22 22 23 20 21 22 18 11 7 6 10 22 18 26 25 18 11 8 12 9 13 9 6 9 14 22 23
18 22 25 22 19 16 15 13 16 16 13 13 7 7 1 11 16 15 15 18 19 20 20 19 19 16 8 5 7 14 20 13 15 19 16 10 10 7 9 13 10 12 14 16 19
24 22 25 25 22 18 17 21 24 22 19 14 10 10 5 8 14 14 13 13 14 15 19 18 23 13 11 13 3 12 13 20 22 19 12 10 7 9 12 13 8 12 16 18 17
24 24 25 29 24 20 18 25 31 28 24 18 15 15 11 5 4 7 13 12 11 13 18 21 18 13 13 8 4 5 18 20 23 20 13 9 12 8 11 10 12 17 14 16 16
27 27 25 28 27 22 24 32 35 32 30 26 17 12 8 7 5 5 9 12 10 1 22 22 17 14 15 5 4 11 15 17 20 15 7 8 10 10 16 17 19 22 13 17 15
34 31 27 29 27 25 28 39 33 35 33 26 15 18 19 15 7 8 5 6 11 5 22 24 23 18 11 10 13 13 16 22 19 12 8 14 18 17 15 18 18 19 15 5 6
38 37 32 31 34 35 34 36 34 32 32 24 21 27 22 15 13 7 13 7 6 8 13 15 25 23 18 13 11 15 19 25 19 11 5 15 15 17 19 23 26 25 29 7 5
40 43 40 32 38 37 35 35 33 35 32 24 32 30 21 18 13 18 12 9 13 15 18 17 21 23 21 14 10 7 18 23 16 8 11 14 11 16 15 21 25 24 18 7 6
43 47 42 33 35 36 36 35 33 34 30 30 37 31 22 25 24 18 13 18 15 17 20 19 13 23 23 16 14 12 15 21 12 10 13 11 10 13 17 17 12 26 14 17 7
43 44 45 39 37 38 41 39 35 34 29 38 41 31 26 20 21 26 25 18 16 17 16 25 12 10 20 22 15 16 14 18 14 10 11 16 15 18 17 14 21 17 20 23 24
Wind_Direction
242 244 244 246 256 259 262 274 288 311 322 87 77 88 100 116 115 131 138 143 130 96 74 105 112 66 61 54 34 63 69 61 64 44 45 46 38 72 72 79 68 76 104 113 112
247 247 248 248 250 251 257 258 262 263 268 256 180 122 124 126 130 129 134 150 144 125 110 80 82 92 73 67 299 76 74 28 63 70 71 62 45 66 62 59 66 66 85 113 124
247 248 250 250 249 248 249 250 253 248 250 250 235 207 176 136 139 125 139 153 169 141 147 146 107 79 89 348 258 33 87 46 2 38 61 64 63 61 62 55 51 54 62 73 103
251 250 249 249 250 249 248 248 249 246 240 240 239 232 212 196 176 157 146 164 179 152 134 142 142 122 124 356 359 19 351 346 358 339 347 45 66 63 56 57 54 45 51 68 79
251 251 250 250 250 250 248 247 245 243 235 234 232 232 227 224 204 196 167 170 184 173 158 157 151 144 151 88 32 13 14 323 339 37 61 50 46 67 51 57 56 55 48 51 66
256 254 252 251 250 249 248 247 244 239 233 232 231 231 231 227 223 204 196 179 181 188 191 178 194 195 209 127 19 80 15 17 340 6 118 74 53 73 55 44 52 56 52 53 51
257 257 256 254 251 250 248 245 243 239 236 235 238 236 231 222 227 220 202 197 193 195 211 198 214 232 279 271 148 190 85 354 23 34 68 55 42 71 57 40 44 53 52 54 56
261 260 257 256 254 251 246 244 243 239 237 235 234 235 230 223 230 222 222 210 197 206 213 224 219 215 255 284 250 188 78 1 38 90 92 82 64 61 57 40 28 45 51 48 52
264 263 261 258 256 254 250 245 241 240 238 236 233 231 232 225 222 228 226 220 214 207 218 223 224 229 236 274 302 266 51 323 43 82 66 70 85 78 63 63 45 51 50 52 48
273 267 262 259 255 255 253 249 242 238 237 236 233 231 231 229 227 227 225 225 219 213 220 233 225 226 220 247 264 160 100 45 44 129 159 111 48 62 79 26 33 56 56 44 49
270 275 265 260 256 253 251 248 244 237 233 233 231 234 234 234 233 229 222 226 224 219 225 231 231 232 241 217 235 220 181 3 19 65 297 79 83 42 45 24 29 67 61 56 55
265 268 271 259 255 253 252 249 247 240 236 237 233 235 232 230 226 232 225 226 227 222 226 232 241 232 225 208 229 234 223 338 15 53 73 313 79 34 25 34 9 33 45 71 76
262 262 267 262 254 253 251 248 243 238 236 238 232 234 234 228 224 223 227 227 223 224 227 228 223 235 234 204 215 199 194 303 325 103 30 336 351 18 351 57 41 25 59 101 93
257 257 260 263 255 250 249 250 251 245 232 235 230 231 234 233 229 229 228 229 228 226 232 227 228 237 235 217 196 195 227 254 340 143 357 322 286 321 298 40 20 347 47 54 106
253 253 253 257 258 248 242 242 242 242 237 237 231 230 231 229 226 223 225 225 227 227 232 225 231 233 236 229 220 154 227 269 291 319 351 181 300 277 295 293 342 142 4 23 72
252 247 248 250 251 246 239 243 237 229 220 226 221 224 227 228 228 225 223 223 222 225 228 232 229 235 239 232 210 173 219 235 253 265 286 288 299 307 343 325 354 114 331 1 43
249 241 242 243 243 241 228 230 232 221 206 183 194 209 224 223 228 227 223 225 229 230 230 228 233 237 240 241 217 207 199 221 234 243 232 271 311 304 298 326 353 356 4 340 348
246 238 233 237 235 234 220 221 200 184 188 199 175 137 222 226 224 222 218 218 221 216 213 215 218 213 220 232 240 239 235 224 229 224 221 287 298 289 290 305 272 295 327 341 327
250 235 230 230 231 226 211 202 182 172 204 191 164 337 233 227 224 214 211 212 216 214 218 221 206 185 180 226 269 240 237 227 188 191 221 260 303 272 321 305 296 328 317 345 358
242 238 231 225 223 218 206 192 177 174 184 203 135 81 12 238 238 208 195 196 202 209 206 211 202 213 217 211 261 241 207 191 191 204 222 257 302 313 309 296 263 292 314 342 323
244 238 228 224 220 212 200 198 185 187 186 185 178 143 129 107 67 194 165 160 178 191 202 196 174 185 209 204 198 262 218 205 201 206 222 250 278 255 251 243 243 291 309 328 331
239 239 232 225 218 208 196 198 194 199 189 187 186 142 144 191 235 29 134 140 108 150 198 193 173 182 209 181 323 320 214 204 190 191 214 261 239 219 210 202 240 270 281 307 315
236 238 229 223 211 209 202 201 205 199 204 204 206 173 172 191 210 159 180 184 156 242 199 193 190 195 215 197 217 257 215 191 177 193 247 259 254 257 237 248 270 267 266 271 169
233 234 229 219 209 202 206 208 211 210 201 219 208 168 173 192 169 219 213 172 205 230 277 231 207 211 216 219 231 259 212 200 197 215 290 237 261 268 281 288 298 313 306 311 338
229 231 228 218 214 208 208 207 209 215 213 214 188 167 181 190 174 194 192 203 220 232 251 258 211 211 207 213 234 218 187 194 210 221 257 278 274 299 288 291 294 329 299 243 240
228 228 227 218 215 211 208 208 205 214 212 198 175 171 189 185 177 215 214 214 236 239 244 208 188 221 198 189 220 218 196 201 192 238 254 260 260 281 288 294 306 336 277 287 244
230 227 225 217 213 206 210 207 199 207 200 190 173 182 195 205 171 203 223 231 242 206 212 181 168 116 179 185 207 215 180 191 201 235 240 256 264 277 302 295 294 298 309 315 300